• In Romania
  • List of Countries
  • For 7 days
  • Water Temperature
  • Satellite Maps
  • Weather Map
  • Weather Widgets
  • user-avatar
    Login

    Hourly Weather Metenevka

    Today, 26 September, Wednesday

    Time Temperature Precipitation Wind Pressure Humidity
    00:00 +5°C° 0 mm 4 mps 742 mmHg 76%
    01:00 +5°C° 0 mm 4 mps 743 mmHg 78%
    02:00 +5°C° 0 mm 4 mps 743 mmHg 80%
    03:00 +4°C° 0 mm 4 mps 744 mmHg 82%
    04:00 +4°C° 0 mm 4 mps 744 mmHg 84%
    05:00 +3°C° 0 mm 4 mps 745 mmHg 86%
    06:00 +3°C° 0 mm 4 mps 745 mmHg 88%
    07:00 +4°C° 0 mm 4 mps 746 mmHg 84%
    08:00 +4°C° 0 mm 4 mps 746 mmHg 80%
    09:00 +5°C° 0 mm 4 mps 747 mmHg 76%
    10:00 +6°C° 0 mm 4 mps 747 mmHg 70%
    11:00 +7°C° 0 mm 4 mps 748 mmHg 64%
    12:00 +8°C° 0 mm 5 mps 748 mmHg 58%
    13:00 +9°C° 0 mm 5 mps 748 mmHg 56%
    14:00 +9°C° 0 mm 5 mps 748 mmHg 54%
    15:00 +9°C° 0 mm 5 mps 748 mmHg 52%
    16:00 +8°C° 0 mm 4 mps 748 mmHg 55%
    17:00 +8°C° 0 mm 4 mps 748 mmHg 59%
    18:00 +8°C° 0 mm 3 mps 747 mmHg 62%
    19:00 +7°C° 0 mm 3 mps 747 mmHg 64%
    20:00 +6°C° 0 mm 4 mps 747 mmHg 65%
    21:00 +5°C° 0 mm 4 mps 747 mmHg 66%
    22:00 +5°C° 0 mm 5 mps 746 mmHg 66%
    23:00 +4°C° 0 mm 6 mps 746 mmHg 67%

    Tomorrow, 27 September, Thursday

    Time Temperature Precipitation Wind Pressure Humidity
    00:00 +5°C° 0 mm 6 mps 745 mmHg 67%
    01:00 +5°C° 0 mm 7 mps 744 mmHg 65%
    02:00 +5°C° 0 mm 8 mps 743 mmHg 63%
    03:00 +5°C° 0 mm 8 mps 743 mmHg 61%
    04:00 +5°C° 0.6 mm 9 mps 742 mmHg 64%
    05:00 +3°C° 0.6 mm 10 mps 740 mmHg 67%
    06:00 +3°C° 0.6 mm 10 mps 739 mmHg 70%
    07:00 +3°C° 0.5 mm 11 mps 739 mmHg 73%
    08:00 +3°C° 0.5 mm 11 mps 738 mmHg 76%
    09:00 +4°C° 0.5 mm 11 mps 737 mmHg 79%
    10:00 +4°C° 0.4 mm 11 mps 737 mmHg 80%
    11:00 +5°C° 0.4 mm 10 mps 737 mmHg 82%
    12:00 +6°C° 0.4 mm 10 mps 737 mmHg 83%
    13:00 +7°C° 0.1 mm 10 mps 737 mmHg 81%
    14:00 +7°C° 0.1 mm 9 mps 737 mmHg 79%
    15:00 +8°C° 0.1 mm 9 mps 737 mmHg 77%
    16:00 +9°C° 0 mm 8 mps 737 mmHg 76%
    17:00 +9°C° 0 mm 7 mps 737 mmHg 75%
    18:00 +8°C° 0 mm 6 mps 738 mmHg 75%
    19:00 +8°C° 0 mm 5 mps 738 mmHg 77%
    20:00 +7°C° 0 mm 5 mps 739 mmHg 80%
    21:00 +7°C° 0 mm 5 mps 739 mmHg 83%
    22:00 +7°C° 0 mm 5 mps 739 mmHg 83%
    23:00 +7°C° 0 mm 5 mps 739 mmHg 83%

    Day after tomorrow, 28 September, Friday

    Time Temperature Precipitation Wind Pressure Humidity
    00:00 +6°C° 0 mm 5 mps 739 mmHg 84%
    01:00 +6°C° 0 mm 5 mps 739 mmHg 86%
    02:00 +6°C° 0 mm 5 mps 739 mmHg 88%
    03:00 +6°C° 0 mm 5 mps 739 mmHg 90%
    04:00 +5°C° 0 mm 6 mps 739 mmHg 89%
    05:00 +5°C° 0 mm 6 mps 738 mmHg 88%
    06:00 +5°C° 0 mm 7 mps 738 mmHg 86%
    07:00 +6°C° 0 mm 8 mps 737 mmHg 84%
    08:00 +7°C° 0 mm 9 mps 737 mmHg 82%
    09:00 +8°C° 0 mm 10 mps 736 mmHg 80%
    10:00 +9°C° 0 mm 10 mps 736 mmHg 80%
    11:00 +9°C° 0 mm 10 mps 736 mmHg 81%
    12:00 +11°C° 0 mm 10 mps 735 mmHg 81%
    13:00 +11°C° 0 mm 10 mps 735 mmHg 81%
    14:00 +12°C° 0 mm 10 mps 735 mmHg 81%
    15:00 +12°C° 0 mm 10 mps 734 mmHg 80%
    16:00 +12°C° 0.4 mm 9 mps 735 mmHg 82%
    17:00 +12°C° 0.4 mm 9 mps 735 mmHg 84%
    18:00 +12°C° 0.4 mm 8 mps 735 mmHg 85%
    19:00 +11°C° 0.2 mm 7 mps 736 mmHg 84%
    20:00 +10°C° 0.2 mm 6 mps 737 mmHg 83%
    21:00 +8°C° 0.2 mm 5 mps 738 mmHg 82%
    22:00 +7°C° 0 mm 4 mps 739 mmHg 83%
    23:00 +7°C° 0 mm 3 mps 739 mmHg 85%

    29 September, Saturday

    Time Temperature Precipitation Wind Pressure Humidity
    00:00 +6°C° 0 mm 2 mps 740 mmHg 86%
    01:00 +5°C° 0 mm 2 mps 741 mmHg 87%
    02:00 +5°C° 0 mm 2 mps 741 mmHg 87%
    03:00 +4°C° 0 mm 2 mps 742 mmHg 88%
    04:00 +4°C° 0 mm 2 mps 742 mmHg 88%
    05:00 +4°C° 0 mm 2 mps 743 mmHg 88%
    06:00 +4°C° 0 mm 2 mps 743 mmHg 88%
    07:00 +5°C° 0 mm 2 mps 743 mmHg 83%
    08:00 +6°C° 0 mm 2 mps 744 mmHg 79%
    09:00 +7°C° 0 mm 2 mps 744 mmHg 75%
    10:00 +8°C° 0 mm 2 mps 744 mmHg 69%
    11:00 +9°C° 0 mm 2 mps 745 mmHg 64%
    12:00 +10°C° 0 mm 2 mps 745 mmHg 59%
    13:00 +12°C° 0 mm 2 mps 745 mmHg 57%
    14:00 +12°C° 0 mm 2 mps 745 mmHg 56%
    15:00 +12°C° 0 mm 2 mps 745 mmHg 54%
    16:00 +12°C° 0 mm 2 mps 745 mmHg 58%
    17:00 +11°C° 0 mm 1 mps 745 mmHg 62%
    18:00 +10°C° 0 mm 1 mps 745 mmHg 65%
    19:00 +10°C° 0 mm 1 mps 746 mmHg 66%
    20:00 +9°C° 0 mm 1 mps 746 mmHg 68%
    21:00 +9°C° 0 mm 1 mps 747 mmHg 69%
    22:00 +9°C° 0 mm 1 mps 747 mmHg 69%
    23:00 +8°C° 0 mm 1 mps 747 mmHg 70%

    30 September, Sunday

    Time Temperature Precipitation Wind Pressure Humidity
    00:00 +8°C° 0 mm 1 mps 747 mmHg 70%
    01:00 +7°C° 0 mm 1 mps 748 mmHg 70%
    02:00 +6°C° 0 mm 1 mps 748 mmHg 70%
    03:00 +5°C° 0 mm 2 mps 748 mmHg 70%
    04:00 +6°C° 0 mm 1 mps 748 mmHg 69%
    05:00 +6°C° 0 mm 1 mps 749 mmHg 68%
    06:00 +5°C° 0 mm 1 mps 749 mmHg 66%
    07:00 +6°C° 0 mm 1 mps 749 mmHg 63%
    08:00 +7°C° 0 mm 1 mps 749 mmHg 60%
    09:00 +8°C° 0 mm 1 mps 750 mmHg 57%
    10:00 +9°C° 0 mm 1 mps 750 mmHg 55%
    11:00 +10°C° 0 mm 1 mps 750 mmHg 52%
    12:00 +11°C° 0 mm 1 mps 750 mmHg 49%
    13:00 +12°C° 0 mm 1 mps 749 mmHg 49%
    14:00 +12°C° 0 mm 2 mps 749 mmHg 48%
    15:00 +12°C° 0 mm 2 mps 749 mmHg 48%
    16:00 +12°C° 0 mm 2 mps 749 mmHg 52%
    17:00 +11°C° 0 mm 1 mps 749 mmHg 57%
    18:00 +10°C° 0 mm 1 mps 749 mmHg 62%
    19:00 +9°C° 0 mm 1 mps 749 mmHg 64%
    20:00 +9°C° 0 mm 1 mps 749 mmHg 66%
    21:00 +8°C° 0 mm 1 mps 749 mmHg 69%
    22:00 +8°C° 0 mm 1 mps 749 mmHg 71%
    23:00 +6°C° 0 mm 2 mps 748 mmHg 73%

    1 October, Monday

    Time Temperature Precipitation Wind Pressure Humidity
    00:00 +6°C° 0 mm 2 mps 748 mmHg 75%
    01:00 +6°C° 0 mm 2 mps 748 mmHg 77%
    02:00 +6°C° 0 mm 2 mps 748 mmHg 79%
    03:00 +5°C° 0 mm 2 mps 748 mmHg 81%
    04:00 +5°C° 0 mm 2 mps 748 mmHg 81%
    05:00 +5°C° 0 mm 2 mps 748 mmHg 82%
    06:00 +4°C° 0 mm 2 mps 748 mmHg 82%
    07:00 +6°C° 0 mm 2 mps 748 mmHg 78%
    08:00 +7°C° 0 mm 2 mps 748 mmHg 73%
    09:00 +8°C° 0 mm 3 mps 748 mmHg 68%
    10:00 +9°C° 0 mm 3 mps 748 mmHg 63%
    11:00 +10°C° 0 mm 4 mps 748 mmHg 57%
    12:00 +12°C° 0 mm 4 mps 747 mmHg 52%
    13:00 +12°C° 0 mm 4 mps 747 mmHg 51%
    14:00 +13°C° 0 mm 4 mps 747 mmHg 50%
    15:00 +13°C° 0 mm 4 mps 746 mmHg 49%
    16:00 +12°C° 0 mm 3 mps 746 mmHg 54%
    17:00 +11°C° 0 mm 3 mps 746 mmHg 58%
    18:00 +10°C° 0 mm 2 mps 746 mmHg 63%
    19:00 +9°C° 0 mm 2 mps 746 mmHg 65%
    20:00 +8°C° 0 mm 2 mps 746 mmHg 66%
    21:00 +9°C° 0 mm 1 mps 746 mmHg 68%
    22:00 +9°C° 0 mm 1 mps 746 mmHg 69%
    23:00 +7°C° 0 mm 2 mps 746 mmHg 70%
    Show more